• In Hungary
  • List of Countries
  • For 7 days
  • Water Temperature
  • Satellite Maps
  • Weather Map
  • News
  • Weather Widgets
  • user-avatar
    Login

    Hourly Weather Chabazimahi

    Today, 21 July, Saturday

    Time Temperature Precipitation Wind Pressure Humidity
    00:00 +18°C° 0 mm 2 mps 657 mmHg 84%
    01:00 +18°C° 0 mm 2 mps 657 mmHg 83%
    02:00 +18°C° 0 mm 2 mps 657 mmHg 82%
    03:00 +17°C° 0 mm 2 mps 657 mmHg 77%
    04:00 +18°C° 0 mm 2 mps 657 mmHg 75%
    05:00 +19°C° 0 mm 2 mps 658 mmHg 74%
    06:00 +20°C° 0 mm 2 mps 658 mmHg 72%
    07:00 +21°C° 0 mm 3 mps 658 mmHg 69%
    08:00 +22°C° 0 mm 3 mps 659 mmHg 66%
    09:00 +23°C° 0 mm 4 mps 659 mmHg 65%
    10:00 +23°C° 0.1 mm 4 mps 659 mmHg 64%
    11:00 +25°C° 0.1 mm 4 mps 659 mmHg 63%
    12:00 +25°C° 0.1 mm 4 mps 659 mmHg 62%
    13:00 +25°C° 0.2 mm 4 mps 659 mmHg 63%
    14:00 +25°C° 0.2 mm 3 mps 659 mmHg 64%
    15:00 +24°C° 0.2 mm 3 mps 659 mmHg 64%
    16:00 +24°C° 0.2 mm 2 mps 659 mmHg 67%
    17:00 +23°C° 0.2 mm 2 mps 659 mmHg 70%
    18:00 +23°C° 0.2 mm 1 mps 659 mmHg 73%
    19:00 +21°C° 0.1 mm 1 mps 659 mmHg 77%
    20:00 +20°C° 0.1 mm 1 mps 658 mmHg 82%
    21:00 +19°C° 0.1 mm 1 mps 658 mmHg 86%
    22:00 +18°C° 0 mm 2 mps 658 mmHg 85%
    23:00 +18°C° 0 mm 2 mps 659 mmHg 84%

    Tomorrow, 22 July, Sunday

    Time Temperature Precipitation Wind Pressure Humidity
    00:00 +18°C° 0 mm 2 mps 659 mmHg 83%
    01:00 +18°C° 0 mm 2 mps 659 mmHg 83%
    02:00 +17°C° 0 mm 2 mps 659 mmHg 82%
    03:00 +17°C° 0 mm 2 mps 659 mmHg 81%
    04:00 +18°C° 0 mm 2 mps 659 mmHg 79%
    05:00 +19°C° 0 mm 2 mps 659 mmHg 77%
    06:00 +20°C° 0 mm 2 mps 659 mmHg 74%
    07:00 +21°C° 0 mm 2 mps 659 mmHg 69%
    08:00 +23°C° 0 mm 2 mps 660 mmHg 64%
    09:00 +25°C° 0 mm 2 mps 660 mmHg 59%
    10:00 +25°C° 0.1 mm 3 mps 660 mmHg 58%
    11:00 +26°C° 0.1 mm 3 mps 660 mmHg 58%
    12:00 +26°C° 0.1 mm 3 mps 660 mmHg 57%
    13:00 +26°C° 0.2 mm 3 mps 659 mmHg 58%
    14:00 +26°C° 0.2 mm 3 mps 659 mmHg 58%
    15:00 +26°C° 0.2 mm 3 mps 659 mmHg 59%
    16:00 +25°C° 0.6 mm 3 mps 659 mmHg 63%
    17:00 +24°C° 0.6 mm 2 mps 658 mmHg 67%
    18:00 +23°C° 0.6 mm 2 mps 658 mmHg 70%
    19:00 +21°C° 0.3 mm 2 mps 658 mmHg 75%
    20:00 +20°C° 0.3 mm 1 mps 658 mmHg 79%
    21:00 +19°C° 0.3 mm 1 mps 658 mmHg 84%
    22:00 +19°C° 0.1 mm 1 mps 658 mmHg 83%
    23:00 +19°C° 0.1 mm 1 mps 658 mmHg 82%

    Day after tomorrow, 23 July, Monday

    Time Temperature Precipitation Wind Pressure Humidity
    00:00 +18°C° 0.1 mm 2 mps 658 mmHg 82%
    01:00 +19°C° 0 mm 1 mps 658 mmHg 80%
    02:00 +19°C° 0 mm 1 mps 657 mmHg 79%
    03:00 +19°C° 0 mm 1 mps 657 mmHg 77%
    04:00 +20°C° 0.1 mm 1 mps 658 mmHg 77%
    05:00 +20°C° 0.1 mm 1 mps 658 mmHg 76%
    06:00 +21°C° 0.1 mm 1 mps 658 mmHg 76%
    07:00 +22°C° 0.1 mm 1 mps 658 mmHg 72%
    08:00 +23°C° 0.1 mm 1 mps 658 mmHg 69%
    09:00 +24°C° 0.1 mm 2 mps 658 mmHg 65%
    10:00 +25°C° 0.3 mm 2 mps 658 mmHg 63%
    11:00 +25°C° 0.3 mm 3 mps 658 mmHg 60%
    12:00 +26°C° 0.3 mm 3 mps 658 mmHg 58%
    13:00 +26°C° 0.5 mm 3 mps 658 mmHg 58%
    14:00 +26°C° 0.5 mm 3 mps 657 mmHg 59%
    15:00 +26°C° 0.5 mm 3 mps 657 mmHg 59%
    16:00 +25°C° 0.3 mm 3 mps 657 mmHg 62%
    17:00 +24°C° 0.3 mm 2 mps 656 mmHg 66%
    18:00 +23°C° 0.3 mm 1 mps 656 mmHg 69%
    19:00 +22°C° 0.1 mm 1 mps 656 mmHg 73%
    20:00 +21°C° 0.1 mm 1 mps 656 mmHg 77%
    21:00 +20°C° 0.1 mm 1 mps 656 mmHg 81%
    22:00 +19°C° 0.1 mm 2 mps 656 mmHg 79%
    23:00 +19°C° 0.1 mm 2 mps 656 mmHg 78%

    24 July, Tuesday

    Time Temperature Precipitation Wind Pressure Humidity
    00:00 +19°C° 0.1 mm 2 mps 657 mmHg 76%
    01:00 +19°C° 0.3 mm 2 mps 656 mmHg 77%
    02:00 +19°C° 0.3 mm 2 mps 656 mmHg 77%
    03:00 +19°C° 0.3 mm 2 mps 656 mmHg 78%
    04:00 +19°C° 0 mm 2 mps 656 mmHg 77%
    05:00 +19°C° 0 mm 2 mps 657 mmHg 76%
    06:00 +20°C° 0 mm 3 mps 657 mmHg 75%
    07:00 +21°C° 0 mm 3 mps 657 mmHg 69%
    08:00 +24°C° 0 mm 3 mps 658 mmHg 64%
    09:00 +25°C° 0 mm 3 mps 658 mmHg 58%
    10:00 +26°C° 0.2 mm 3 mps 658 mmHg 57%
    11:00 +27°C° 0.2 mm 4 mps 658 mmHg 56%
    12:00 +27°C° 0.2 mm 4 mps 658 mmHg 55%
    13:00 +27°C° 0.1 mm 4 mps 658 mmHg 56%
    14:00 +27°C° 0.1 mm 3 mps 658 mmHg 57%
    15:00 +27°C° 0.1 mm 3 mps 658 mmHg 59%
    16:00 +26°C° 0 mm 3 mps 658 mmHg 62%
    17:00 +26°C° 0 mm 2 mps 658 mmHg 66%
    18:00 +25°C° 0 mm 2 mps 658 mmHg 70%
    19:00 +24°C° 0 mm 2 mps 658 mmHg 74%
    20:00 +21°C° 0 mm 2 mps 658 mmHg 78%
    21:00 +20°C° 0 mm 2 mps 658 mmHg 81%
    22:00 +20°C° 0 mm 2 mps 658 mmHg 77%
    23:00 +19°C° 0 mm 2 mps 658 mmHg 74%

    25 July, Wednesday

    Time Temperature Precipitation Wind Pressure Humidity
    00:00 +19°C° 0 mm 2 mps 658 mmHg 70%
    01:00 +19°C° 0 mm 2 mps 658 mmHg 65%
    02:00 +19°C° 0 mm 2 mps 658 mmHg 60%
    03:00 +19°C° 0 mm 2 mps 658 mmHg 55%
    04:00 +20°C° 0 mm 2 mps 658 mmHg 54%
    05:00 +20°C° 0 mm 2 mps 658 mmHg 53%
    06:00 +21°C° 0 mm 2 mps 658 mmHg 53%
    07:00 +24°C° 0 mm 2 mps 659 mmHg 49%
    08:00 +27°C° 0 mm 2 mps 659 mmHg 46%
    09:00 +29°C° 0 mm 2 mps 660 mmHg 43%
    10:00 +30°C° 0 mm 2 mps 659 mmHg 43%
    11:00 +31°C° 0 mm 3 mps 659 mmHg 43%
    12:00 +32°C° 0 mm 4 mps 659 mmHg 43%
    13:00 +32°C° 0 mm 4 mps 659 mmHg 45%
    14:00 +32°C° 0 mm 4 mps 659 mmHg 47%
    15:00 +32°C° 0 mm 4 mps 659 mmHg 49%
    16:00 +30°C° 0 mm 3 mps 659 mmHg 53%
    17:00 +29°C° 0 mm 3 mps 658 mmHg 57%
    18:00 +28°C° 0 mm 3 mps 658 mmHg 62%
    19:00 +26°C° 0 mm 3 mps 658 mmHg 64%
    20:00 +25°C° 0 mm 2 mps 658 mmHg 66%
    21:00 +23°C° 0 mm 2 mps 658 mmHg 68%
    22:00 +23°C° 0 mm 2 mps 658 mmHg 64%
    23:00 +23°C° 0 mm 2 mps 658 mmHg 60%

    26 July, Thursday

    Time Temperature Precipitation Wind Pressure Humidity
    00:00 +23°C° 0 mm 2 mps 658 mmHg 56%
    01:00 +23°C° 0 mm 2 mps 658 mmHg 53%
    02:00 +23°C° 0 mm 2 mps 658 mmHg 50%
    03:00 +21°C° 0 mm 3 mps 658 mmHg 47%
    04:00 +22°C° 0 mm 3 mps 658 mmHg 48%
    05:00 +22°C° 0 mm 3 mps 658 mmHg 50%
    06:00 +24°C° 0 mm 3 mps 659 mmHg 51%
    07:00 +26°C° 0 mm 3 mps 659 mmHg 48%
    08:00 +28°C° 0 mm 3 mps 660 mmHg 46%
    09:00 +30°C° 0 mm 4 mps 660 mmHg 43%
    10:00 +32°C° 0 mm 4 mps 660 mmHg 43%
    11:00 +33°C° 0 mm 5 mps 660 mmHg 43%
    12:00 +33°C° 0 mm 5 mps 660 mmHg 44%
    13:00 +33°C° 0 mm 5 mps 660 mmHg 45%
    14:00 +33°C° 0 mm 5 mps 660 mmHg 46%
    15:00 +33°C° 0 mm 5 mps 660 mmHg 47%
    16:00 +30°C° 0.3 mm 5 mps 660 mmHg 51%
    17:00 +29°C° 0.3 mm 4 mps 660 mmHg 55%
    18:00 +28°C° 0.3 mm 4 mps 660 mmHg 59%
    19:00 +26°C° 0.1 mm 3 mps 659 mmHg 62%
    20:00 +24°C° 0.1 mm 3 mps 659 mmHg 64%
    21:00 +21°C° 0.1 mm 2 mps 659 mmHg 66%
    22:00 +21°C° 0 mm 2 mps 659 mmHg 64%
    23:00 +21°C° 0 mm 2 mps 659 mmHg 62%
    Show more